Wetbulb
58.96 59.04 59.49 59.71 59.81 60.21 60.67 61.14 61.39 61.82 62.10 62.16 62.29 62.32 61.65 61.32 60.68 58.35 53.28 56.81 58.55 62.38 60.06 53.03 51.69 50.84 50.83 48.81 48.03 44.66 37.73 35.52 38.12 39.52 41.37 44.13 42.91 45.10 45.61 45.08 44.59 45.03 43.20 44.57 47.87
58.64 58.78 59.10 59.41 59.59 59.85 60.32 60.72 61.03 61.51 61.95 62.08 62.14 62.19 61.53 60.66 56.35 53.98 59.47 62.45 63.27 62.41 53.40 49.74 47.78 48.33 45.81 46.77 46.83 42.00 37.05 38.72 41.81 41.82 42.02 44.52 43.64 45.09 43.35 42.68 41.62 41.98 44.38 46.02 46.41
58.65 58.79 59.00 59.12 59.38 59.66 60.02 60.46 60.88 61.28 61.61 62.02 61.80 61.49 60.83 58.75 52.34 51.90 61.43 62.82 63.25 59.88 54.38 51.84 50.21 47.87 43.58 44.51 43.30 42.08 38.22 41.08 43.61 45.76 45.58 44.93 43.62 44.43 43.51 40.25 42.90 43.32 43.89 45.07 44.71
58.94 58.86 58.88 58.89 59.04 59.42 59.70 60.35 60.67 60.98 61.34 61.56 60.96 60.49 59.51 55.33 42.63 55.08 61.68 62.45 62.77 55.43 53.32 50.69 48.12 43.50 41.69 41.73 45.66 39.06 42.75 43.95 46.58 46.55 45.57 43.35 44.84 43.05 42.81 42.22 44.15 44.38 44.93 43.99 43.62
59.04 58.79 58.73 58.62 58.69 59.11 59.55 59.79 60.45 60.72 61.24 60.74 60.45 60.00 54.75 49.01 50.35 56.90 60.47 60.16 56.15 52.93 50.94 49.77 45.59 44.08 41.02 43.06 44.19 41.39 42.90 45.15 46.19 45.23 44.01 46.02 43.40 42.88 41.87 42.50 44.49 45.12 44.75 42.96 42.74
58.64 58.56 58.32 58.38 58.50 58.89 59.30 59.45 59.79 60.39 60.86 60.27 60.54 59.76 51.91 44.62 56.04 56.28 55.29 54.81 54.25 51.26 49.71 49.44 46.63 46.54 43.48 43.00 42.03 43.72 44.19 44.34 45.57 45.32 44.52 43.60 42.31 42.73 41.68 42.17 42.75 43.51 41.53 41.22 42.45
58.08 58.14 58.32 58.28 58.58 58.83 59.11 59.22 59.37 59.92 60.28 59.88 60.62 56.97 49.88 49.49 55.06 53.15 53.69 51.80 52.15 51.44 49.83 50.39 49.75 46.28 45.17 42.79 45.30 44.06 39.83 42.14 43.20 44.45 42.93 43.78 40.32 41.73 42.71 42.37 41.76 40.95 39.86 40.59 41.56
57.89 57.43 57.46 58.28 58.44 58.64 58.96 59.21 59.21 59.50 59.95 59.72 59.93 53.34 46.34 53.85 54.13 54.05 52.52 50.90 51.65 51.74 51.22 50.62 50.13 47.85 45.37 45.10 43.38 39.68 38.31 35.43 42.01 43.40 42.75 41.55 36.36 42.40 42.28 41.27 40.19 39.61 38.37 39.51 40.62
57.34 57.13 57.29 58.02 57.99 58.05 58.51 58.83 58.50 59.29 60.32 59.84 52.97 49.96 45.99 55.13 52.57 54.46 51.95 49.96 50.31 50.39 49.61 51.99 49.26 44.61 43.20 38.52 36.10 36.37 32.70 35.35 39.72 42.64 41.58 39.46 37.46 40.96 41.99 41.47 39.51 38.55 38.27 39.00 38.73
57.43 57.02 57.11 57.78 57.76 57.84 58.22 58.85 58.31 58.36 58.18 56.76 54.54 44.73 47.98 47.32 50.83 52.60 50.93 51.19 48.59 47.75 46.70 45.90 43.41 39.18 38.52 35.73 31.19 34.06 33.58 37.23 36.68 41.01 39.75 37.42 37.72 40.42 41.78 41.15 39.84 38.58 38.32 38.45 38.28
57.64 57.31 57.28 57.43 57.73 58.14 56.97 54.12 51.20 48.55 50.65 44.67 46.44 46.60 47.09 48.35 51.08 49.64 51.08 49.46 48.41 44.76 39.08 41.64 37.17 35.27 38.12 39.07 39.47 37.64 35.91 35.50 38.27 41.16 39.11 37.90 38.28 40.49 41.24 39.91 38.82 38.33 38.56 38.97 38.73
57.90 57.60 57.53 57.56 57.92 58.18 54.82 50.53 50.01 49.05 44.15 51.23 50.62 50.21 48.89 48.94 44.53 48.11 50.15 44.88 43.81 39.45 41.45 38.60 35.76 41.10 42.71 41.60 40.29 38.85 36.30 35.94 39.03 40.28 38.81 37.85 37.76 40.72 40.41 40.95 41.63 41.27 40.42 39.92 36.44
57.89 57.37 57.23 57.55 57.71 56.73 52.83 51.95 53.95 51.20 43.64 47.11 50.56 49.85 47.10 47.82 45.02 45.31 47.46 44.76 41.32 39.29 39.42 36.67 40.92 44.17 42.43 40.42 39.39 37.88 36.40 35.41 37.40 37.73 37.28 35.06 33.93 37.40 41.12 41.42 41.71 42.85 42.70 41.03 37.53
58.08 57.50 57.05 57.24 54.41 53.98 51.24 55.08 55.61 54.73 35.10 39.01 44.41 49.09 46.66 47.30 43.13 48.72 48.64 45.47 41.85 39.50 39.88 38.95 43.57 41.88 40.28 39.24 40.15 35.20 40.23 39.98 38.49 34.64 30.50 35.18 29.43 35.63 38.74 39.67 39.54 42.22 39.69 39.84 37.11
57.82 57.51 57.00 57.09 53.59 51.35 53.16 55.79 55.18 52.39 22.04 39.48 44.96 50.16 46.68 45.82 44.09 42.94 45.87 43.75 39.79 40.19 40.89 38.06 39.39 38.90 39.44 39.92 41.29 37.83 39.76 38.02 36.66 33.49 31.64 32.09 29.50 33.90 39.28 39.65 42.51 41.99 41.24 39.65 37.76
56.35 57.24 57.05 55.86 55.06 55.02 56.08 56.47 54.57 38.91 24.20 38.38 42.86 41.73 41.60 43.21 40.98 41.98 42.82 44.27 44.23 40.71 39.29 39.01 40.57 40.58 40.63 39.06 40.55 40.61 38.41 37.27 35.22 33.26 26.31 32.88 32.25 31.98 38.19 40.54 43.34 41.23 39.02 37.47 36.72
54.80 56.25 55.79 56.43 50.92 55.96 57.59 48.36 32.62 28.45 38.80 36.45 37.82 40.77 40.65 39.74 38.27 39.17 37.67 37.14 37.14 33.79 32.99 36.63 37.04 38.80 40.76 37.52 39.49 38.89 34.93 27.20 26.00 24.62 26.99 33.27 31.01 36.92 39.41 41.46 42.03 41.13 37.96 36.85 36.86
54.10 55.76 55.25 56.25 56.61 56.01 54.44 40.35 29.14 34.62 34.68 41.21 40.69 39.47 37.22 39.72 37.99 37.84 36.17 35.02 38.05 37.05 34.34 33.62 30.97 37.74 39.84 39.11 36.81 34.80 35.35 28.91 23.20 23.71 26.08 29.22 27.15 34.42 40.97 42.14 38.86 41.57 40.54 37.55 36.15
53.68 54.62 54.00 55.52 56.87 55.56 48.55 31.29 33.68 36.28 39.55 38.46 39.25 35.74 35.66 37.93 36.98 35.98 34.45 36.74 39.05 39.41 36.34 33.32 33.02 38.74 39.06 41.87 41.85 34.31 32.92 39.33 31.24 19.66 22.42 29.42 32.73 37.40 36.93 36.95 36.51 37.56 38.16 36.78 35.90
48.73 50.88 49.89 56.23 56.96 52.87 44.73 36.28 35.86 41.93 41.52 41.39 36.36 38.07 33.85 35.81 34.60 34.09 33.64 37.52 38.29 41.66 41.75 39.82 33.61 36.13 35.97 40.89 38.93 37.15 38.57 30.93 29.63 19.97 19.55 26.94 29.14 33.37 34.14 36.55 35.39 35.87 36.20 35.46 35.22
47.59 44.48 49.51 56.52 55.48 47.81 38.97 37.06 39.79 43.41 43.62 41.22 37.35 37.09 37.45 35.97 35.77 33.32 34.88 37.47 40.87 39.73 42.79 40.68 38.41 31.20 34.79 33.53 34.66 34.63 32.67 33.95 34.69 29.63 24.71 23.71 30.19 36.99 38.90 39.02 35.83 36.48 37.07 36.84 35.35
43.60 38.15 50.58 55.98 44.48 44.97 40.20 42.56 43.16 42.63 44.95 42.91 42.54 40.63 38.18 38.81 36.53 34.43 34.65 38.83 42.44 41.81 37.38 41.57 38.19 27.51 31.67 35.19 36.94 35.33 35.54 34.25 30.68 27.25 27.59 26.99 33.53 37.34 36.43 36.88 37.79 36.80 37.82 37.95 37.38
40.58 40.01 48.59 51.46 38.03 39.63 43.33 42.95 43.47 42.57 42.58 42.52 41.95 42.51 42.77 40.20 36.89 37.97 37.23 41.94 43.03 41.71 38.94 41.51 36.23 30.02 29.75 32.48 33.38 33.37 35.44 38.60 35.66 28.74 30.21 25.58 32.57 35.75 35.27 36.50 36.68 35.57 35.71 36.55 36.07
41.38 35.51 40.28 43.71 44.06 40.67 39.85 40.86 40.34 44.96 43.43 43.96 42.74 43.76 42.09 40.84 42.62 39.45 38.06 41.05 42.40 42.89 43.72 44.18 37.51 35.88 33.02 34.53 35.00 31.25 33.58 35.41 36.30 30.40 30.57 32.97 36.11 33.99 34.30 36.60 35.90 35.47 35.96 35.91 36.42
40.92 34.91 38.02 36.17 37.37 38.88 39.79 41.30 39.89 38.90 43.48 44.16 41.54 41.78 40.86 38.09 39.55 38.89 41.18 39.30 40.60 42.23 42.37 42.35 34.75 35.63 38.34 37.33 35.85 33.29 33.01 34.61 33.55 35.41 32.31 36.05 35.80 39.92 40.52 37.30 37.35 36.73 35.64 35.11 35.19
37.12 36.12 36.84 36.29 39.72 39.55 38.17 36.02 36.06 38.14 41.70 40.41 39.84 41.89 42.12 39.89 40.23 38.48 40.69 40.36 38.10 37.49 40.32 40.26 34.39 36.39 34.86 37.30 36.14 34.27 34.27 34.70 35.66 36.49 36.55 37.34 36.47 40.35 41.62 39.34 36.39 37.25 36.67 35.79 35.69
42.73 39.42 39.83 36.32 34.57 34.28 36.32 37.33 39.16 41.42 41.84 43.20 42.69 41.47 40.47 42.52 45.78 45.76 45.28 44.45 41.53 37.80 36.75 36.72 35.63 33.03 32.02 35.06 33.96 31.49 35.67 36.86 36.16 36.81 36.52 32.87 38.28 39.41 40.49 40.53 36.61 36.13 37.16 37.14 37.38
MSLP
1019.26 1019.23 1019.13 1019.22 1019.17 1019.02 1018.90 1018.85 1018.67 1018.47 1018.21 1017.86 1017.47 1017.27 1016.95 1016.58 1015.75 1015.75 1015.83 1015.90 1015.68 1015.37 1015.18 1014.89 1014.52 1014.36 1014.42 1014.91 1015.17 1015.52 1016.70 1017.05 1016.57 1016.31 1016.10 1015.83 1015.96 1016.13 1016.57 1017.47 1018.67 1019.60 1020.17 1020.65 1020.83
1019.33 1019.34 1019.25 1019.28 1019.38 1019.14 1019.01 1018.84 1018.75 1018.57 1018.22 1017.79 1017.52 1017.21 1016.94 1016.65 1016.21 1015.89 1015.93 1015.67 1015.51 1015.32 1015.23 1015.09 1014.89 1014.56 1014.91 1015.24 1015.54 1016.13 1017.13 1016.80 1016.50 1016.13 1015.93 1016.00 1016.16 1016.43 1017.19 1018.22 1019.58 1020.50 1020.76 1020.92 1021.16
1019.25 1019.35 1019.36 1019.37 1019.40 1019.28 1019.12 1018.88 1018.77 1018.52 1018.20 1017.87 1017.60 1017.14 1016.80 1016.60 1016.34 1016.06 1015.78 1015.58 1015.47 1015.38 1015.27 1015.01 1014.85 1014.84 1015.18 1015.35 1015.75 1016.13 1016.52 1016.38 1016.38 1016.23 1015.98 1016.09 1016.44 1016.62 1017.46 1018.89 1019.44 1020.26 1021.08 1021.41 1021.81
1019.27 1019.29 1019.38 1019.45 1019.37 1019.33 1019.23 1019.03 1018.78 1018.45 1018.29 1018.00 1017.53 1017.00 1016.60 1016.47 1016.59 1015.90 1015.69 1015.57 1015.44 1015.39 1015.23 1015.04 1015.03 1015.24 1015.48 1015.74 1015.82 1016.31 1016.26 1016.32 1016.30 1016.23 1016.29 1016.48 1016.66 1017.11 1017.86 1019.17 1019.58 1020.06 1020.89 1021.61 1022.22
1019.49 1019.41 1019.42 1019.46 1019.46 1019.38 1019.22 1019.07 1018.85 1018.57 1018.33 1017.95 1017.47 1017.02 1016.41 1016.43 1016.03 1015.70 1015.69 1015.53 1015.41 1015.35 1015.31 1015.21 1015.31 1015.39 1015.69 1015.88 1016.05 1016.35 1016.39 1016.37 1016.52 1016.53 1016.67 1016.78 1017.14 1017.66 1018.89 1019.71 1020.09 1020.63 1021.32 1022.04 1022.44
1019.34 1019.49 1019.45 1019.42 1019.45 1019.41 1019.25 1019.14 1018.89 1018.64 1018.27 1017.88 1017.56 1016.96 1016.88 1016.46 1015.50 1015.56 1015.60 1015.63 1015.51 1015.42 1015.31 1015.34 1015.57 1015.58 1015.82 1016.08 1016.40 1016.63 1016.66 1016.64 1016.68 1016.83 1016.92 1017.24 1017.62 1018.09 1019.13 1019.83 1020.50 1021.03 1021.75 1022.23 1022.46
1019.08 1019.27 1019.37 1019.36 1019.44 1019.46 1019.33 1019.23 1018.97 1018.64 1018.31 1017.96 1017.69 1017.33 1016.96 1016.09 1015.43 1015.54 1015.54 1015.62 1015.51 1015.59 1015.54 1015.62 1015.64 1015.82 1016.08 1016.42 1016.71 1016.84 1017.16 1017.03 1016.88 1016.96 1017.28 1017.53 1018.23 1018.12 1018.71 1019.87 1020.67 1021.33 1021.84 1022.33 1022.57
1018.79 1018.98 1019.22 1019.38 1019.42 1019.46 1019.36 1019.17 1018.92 1018.66 1018.37 1018.04 1017.77 1017.56 1016.60 1015.66 1015.61 1015.64 1015.60 1015.71 1015.64 1015.64 1015.81 1015.82 1015.85 1016.18 1016.51 1016.89 1017.11 1017.35 1017.63 1017.70 1016.82 1017.03 1017.49 1017.84 1018.00 1018.05 1018.79 1019.66 1020.71 1021.34 1021.84 1022.27 1022.64
1018.65 1018.65 1018.97 1019.26 1019.35 1019.33 1019.30 1019.08 1018.79 1018.60 1018.32 1018.01 1017.79 1017.47 1016.58 1015.73 1015.77 1015.49 1015.59 1015.81 1015.96 1016.03 1016.14 1016.09 1016.23 1016.88 1017.22 1017.70 1018.18 1018.14 1018.21 1017.93 1017.26 1017.22 1017.62 1018.19 1018.23 1018.36 1019.04 1019.73 1020.52 1020.99 1021.62 1022.06 1022.57
1018.60 1018.31 1018.62 1018.93 1019.20 1019.30 1019.24 1018.95 1018.62 1018.63 1017.91 1017.92 1017.64 1017.65 1016.40 1015.88 1015.69 1015.58 1015.63 1015.84 1016.20 1016.55 1016.69 1016.76 1017.15 1017.73 1018.17 1018.46 1018.72 1018.39 1018.34 1017.86 1017.59 1017.45 1017.61 1018.33 1018.33 1018.44 1018.93 1019.48 1019.93 1020.36 1020.99 1021.59 1022.09
1018.27 1018.17 1018.26 1018.55 1018.85 1019.26 1019.41 1018.83 1019.00 1018.72 1018.01 1016.64 1016.27 1015.89 1015.71 1016.02 1015.85 1015.89 1015.78 1016.00 1016.34 1016.96 1017.38 1017.43 1018.00 1018.11 1017.91 1017.99 1017.81 1017.93 1018.06 1017.94 1017.43 1017.15 1017.66 1018.06 1018.11 1017.99 1018.27 1018.99 1019.35 1019.85 1020.06 1020.57 1021.11
1017.53 1017.81 1018.01 1018.36 1018.54 1019.06 1019.58 1018.95 1017.71 1017.66 1017.10 1015.79 1015.67 1015.53 1015.24 1015.49 1016.04 1016.05 1015.91 1016.45 1016.72 1017.23 1017.68 1018.16 1017.88 1017.41 1017.67 1017.91 1018.09 1017.98 1018.08 1017.80 1017.46 1017.30 1017.90 1017.89 1017.86 1017.50 1017.59 1017.60 1017.65 1018.11 1018.87 1019.56 1020.83
1016.84 1017.17 1017.77 1018.28 1018.38 1019.03 1019.01 1018.13 1017.23 1017.20 1017.25 1015.13 1014.41 1014.22 1014.57 1015.16 1015.25 1015.60 1015.96 1016.29 1016.69 1017.39 1017.55 1017.57 1016.98 1016.49 1017.45 1017.71 1017.99 1017.82 1017.80 1017.84 1017.96 1017.94 1018.13 1018.13 1017.66 1017.26 1016.47 1016.20 1016.21 1016.71 1017.12 1018.28 1019.18
1016.20 1016.71 1017.45 1018.00 1018.91 1018.39 1018.29 1017.24 1017.39 1017.49 1017.20 1014.46 1013.56 1012.46 1013.38 1014.19 1014.85 1014.52 1014.77 1015.45 1016.46 1016.64 1017.37 1017.30 1016.59 1016.59 1017.15 1017.37 1017.59 1017.65 1017.31 1017.63 1018.12 1018.82 1018.90 1018.54 1017.26 1016.49 1015.92 1015.71 1015.65 1015.29 1016.21 1017.12 1018.68
1016.01 1016.20 1016.59 1016.99 1017.21 1017.66 1016.57 1016.50 1017.21 1017.91 1017.09 1013.18 1012.86 1012.69 1012.83 1013.70 1013.77 1014.87 1014.83 1015.00 1015.51 1016.12 1016.64 1015.87 1016.01 1016.35 1016.61 1016.44 1016.99 1017.33 1017.34 1017.87 1018.45 1019.13 1019.47 1019.23 1018.70 1015.42 1015.19 1014.92 1014.41 1013.95 1014.94 1016.25 1017.53
1015.93 1015.84 1016.18 1017.04 1017.01 1016.72 1016.40 1016.66 1017.45 1018.14 1015.52 1013.21 1013.01 1012.90 1013.68 1013.97 1014.49 1015.11 1015.14 1015.09 1015.26 1015.80 1015.80 1015.72 1015.74 1015.89 1015.91 1016.50 1016.67 1017.42 1018.04 1018.85 1019.52 1020.20 1020.06 1019.17 1018.60 1015.19 1014.63 1013.36 1012.78 1013.19 1014.20 1015.66 1017.10
1015.88 1015.69 1015.80 1015.85 1015.73 1016.25 1016.45 1017.63 1018.79 1017.15 1014.51 1013.12 1013.21 1013.41 1013.71 1014.10 1015.00 1014.94 1015.13 1015.19 1014.91 1015.93 1015.83 1015.92 1015.81 1015.83 1015.86 1016.73 1017.18 1017.51 1018.77 1020.16 1020.97 1021.31 1019.45 1018.29 1017.77 1014.13 1013.24 1012.48 1012.46 1012.87 1013.86 1015.15 1016.46
1015.73 1015.44 1015.15 1014.98 1015.32 1016.31 1016.82 1017.19 1017.00 1014.89 1013.47 1012.24 1012.46 1013.45 1013.99 1014.16 1014.96 1015.30 1015.31 1015.33 1014.82 1014.52 1014.91 1015.46 1015.72 1015.39 1015.47 1015.33 1016.26 1017.37 1017.98 1019.11 1020.05 1020.84 1019.96 1018.86 1016.52 1013.24 1012.03 1011.71 1012.14 1012.46 1013.25 1014.89 1016.40
1015.33 1014.94 1014.61 1014.30 1015.03 1015.45 1015.82 1016.80 1014.40 1012.21 1011.64 1011.71 1012.52 1013.25 1014.04 1014.20 1014.73 1015.37 1015.36 1014.39 1013.40 1013.41 1013.84 1014.48 1014.48 1014.14 1014.36 1014.67 1015.36 1017.39 1017.58 1017.60 1019.32 1020.82 1020.33 1017.63 1014.88 1012.91 1012.31 1012.28 1012.53 1012.82 1013.61 1014.62 1015.82
1015.40 1014.62 1013.42 1013.06 1013.98 1014.32 1014.09 1013.65 1012.80 1011.33 1010.63 1010.70 1011.22 1011.87 1012.97 1013.70 1014.45 1014.69 1014.59 1012.87 1012.79 1012.45 1012.56 1012.88 1013.85 1014.57 1015.04 1014.93 1015.64 1015.77 1016.55 1018.04 1019.35 1020.41 1019.31 1016.51 1014.52 1012.45 1012.28 1012.30 1012.58 1013.26 1014.02 1015.07 1016.08
1015.21 1014.23 1011.90 1012.08 1013.39 1012.34 1011.73 1012.12 1011.75 1011.05 1010.41 1010.15 1010.15 1011.17 1011.71 1012.67 1013.07 1013.56 1012.64 1011.92 1011.69 1011.86 1012.30 1012.53 1013.12 1015.26 1015.49 1014.95 1014.72 1015.88 1016.17 1016.82 1017.61 1018.40 1017.69 1015.75 1011.94 1010.59 1010.74 1011.03 1011.77 1012.57 1013.21 1014.05 1015.26
1014.69 1013.62 1011.28 1011.59 1012.19 1011.06 1010.35 1010.49 1010.62 1010.08 1010.10 1009.90 1009.78 1010.28 1010.41 1011.42 1011.86 1012.24 1011.43 1010.61 1010.10 1010.64 1011.70 1011.65 1012.68 1014.49 1014.73 1014.52 1014.52 1014.14 1014.32 1015.05 1015.95 1016.49 1016.13 1014.94 1008.25 1009.71 1009.86 1010.48 1011.22 1011.92 1012.73 1013.64 1014.59
1013.83 1012.49 1010.99 1011.44 1010.63 1010.46 1009.91 1009.68 1009.67 1009.65 1009.65 1009.37 1009.34 1009.29 1009.61 1009.92 1010.86 1010.70 1010.31 1009.89 1009.71 1010.26 1010.45 1011.39 1012.34 1013.73 1014.30 1014.63 1014.57 1014.15 1014.16 1013.69 1014.09 1014.66 1013.61 1014.53 1007.66 1009.48 1009.65 1009.98 1010.67 1011.67 1012.66 1013.45 1014.38
1013.42 1012.36 1011.22 1010.81 1010.15 1009.69 1009.61 1008.84 1008.96 1008.74 1008.95 1008.87 1008.90 1009.18 1009.19 1009.18 1009.32 1009.40 1009.30 1009.25 1009.07 1009.44 1009.73 1010.25 1011.19 1011.19 1011.06 1011.22 1012.36 1013.42 1013.06 1013.18 1013.43 1013.24 1012.48 1010.02 1008.85 1009.42 1009.66 1010.13 1010.71 1011.58 1012.16 1013.00 1013.97
1012.33 1011.24 1010.37 1009.81 1009.83 1009.49 1009.37 1008.50 1008.39 1008.39 1008.27 1008.55 1008.90 1008.81 1008.61 1008.87 1008.89 1008.22 1008.88 1009.06 1009.05 1008.77 1009.35 1009.77 1010.64 1011.01 1010.35 1010.94 1011.09 1011.36 1011.79 1012.11 1011.85 1010.02 1011.31 1006.81 1008.54 1007.97 1008.57 1009.19 1009.92 1010.83 1012.17 1012.83 1013.38
1011.50 1010.66 1010.29 1009.76 1009.37 1009.11 1008.93 1008.08 1008.22 1008.61 1007.94 1007.96 1007.97 1007.96 1008.54 1007.98 1007.35 1006.78 1007.71 1007.99 1008.54 1009.51 1009.36 1009.44 1009.78 1010.89 1010.34 1010.35 1010.81 1011.13 1010.93 1009.88 1010.05 1009.92 1009.51 1008.24 1006.23 1007.27 1007.64 1008.42 1009.46 1009.91 1010.82 1011.58 1012.16
1010.97 1010.38 1010.06 1009.48 1009.31 1009.21 1008.56 1008.09 1007.77 1007.73 1007.93 1007.92 1008.11 1008.38 1007.92 1006.80 1007.05 1006.57 1006.90 1007.34 1007.49 1008.65 1009.56 1009.66 1010.08 1010.86 1009.74 1010.26 1010.87 1010.84 1006.65 1009.09 1008.66 1008.25 1007.84 1007.64 1003.67 1007.09 1007.40 1008.09 1008.57 1009.17 1009.85 1010.07 1010.33
Wind_Speed
6 7 7 8 8 8 9 9 10 11 11 12 13 12 12 13 12 1 3 2 2 5 5 5 3 3 4 2 3 4 5 2 5 5 5 5 4 3 2 7 5 5 4 5 7
5 6 7 7 7 8 8 9 10 11 12 13 14 12 11 13 3 2 2 3 2 2 3 3 4 2 3 2 3 5 4 1 2 4 5 6 5 6 5 4 4 5 4 5 6
3 5 6 7 7 8 8 8 9 10 13 13 14 13 11 7 2 2 3 2 1 3 3 3 3 2 2 3 2 2 3 2 3 2 3 5 4 2 7 2 5 8 9 6 8
3 3 5 6 7 8 9 9 9 10 12 13 14 15 14 1 2 0 2 1 2 4 3 1 2 2 2 2 2 3 1 3 2 3 3 2 2 2 3 4 3 11 9 7 9
4 4 4 5 7 8 8 9 9 10 11 13 13 14 4 3 2 2 1 1 2 2 1 1 2 1 2 3 2 1 1 2 4 2 2 2 2 2 4 7 8 10 9 9 8
5 5 5 5 6 8 8 9 9 9 12 11 12 14 2 2 3 5 4 2 2 1 1 4 2 1 0 3 3 1 3 3 4 4 2 3 2 1 3 8 9 9 9 8 9
6 6 6 6 6 7 8 9 10 10 12 11 10 4 1 8 1 4 3 1 2 2 2 2 3 4 2 2 1 1 3 5 5 6 2 4 5 10 8 9 10 9 8 7 7
7 6 7 6 6 7 8 9 10 11 12 10 10 2 5 1 2 3 3 2 2 2 3 2 3 2 3 1 1 1 2 2 3 8 4 5 8 4 11 12 10 10 8 8 7
10 7 6 6 6 7 9 11 12 12 11 10 3 2 7 2 3 4 3 5 4 3 3 2 3 3 2 4 5 3 4 6 5 4 5 4 7 2 6 7 9 9 9 8 7
12 11 8 6 6 7 10 10 9 10 5 3 3 2 3 4 2 3 2 6 3 3 3 2 4 3 2 4 6 6 4 5 6 7 3 5 10 4 9 9 11 10 10 10 10
13 11 10 8 5 5 6 4 2 3 3 10 7 4 5 1 2 1 3 4 4 2 5 2 4 8 13 10 6 3 3 4 5 4 5 9 9 10 11 7 9 10 11 13 13
14 12 10 9 6 4 2 3 4 1 7 11 8 6 4 7 4 4 4 6 5 6 5 3 8 10 7 7 8 7 7 9 5 4 5 6 11 9 7 13 15 18 16 15 8
15 13 11 10 7 3 4 6 2 0 3 7 9 8 8 9 8 12 11 6 5 7 9 9 8 6 8 5 6 6 6 5 8 1 3 4 7 8 9 11 10 15 13 11 18
15 16 14 10 3 4 5 7 6 2 3 8 8 9 7 9 7 7 13 8 5 13 6 9 10 4 6 7 8 7 6 6 6 1 6 4 10 7 6 10 9 20 14 17 16
13 18 17 17 6 6 6 9 5 3 4 5 3 3 6 12 9 1 0 3 10 10 8 10 9 9 14 10 9 8 2 3 3 4 1 4 6 7 8 12 17 17 16 15 18
8 15 20 12 3 4 5 6 4 4 14 4 3 5 8 3 3 4 4 3 3 4 3 5 2 6 8 2 5 7 5 6 5 3 4 11 10 6 10 13 13 8 11 16 17
11 8 15 8 8 4 9 6 4 7 7 7 6 7 5 7 3 5 8 10 11 8 9 2 5 3 5 6 5 5 7 2 4 1 10 6 9 16 8 8 9 11 12 15 17
13 9 7 9 4 10 4 5 7 14 12 3 6 4 6 7 4 6 8 10 10 3 5 12 8 14 8 10 10 8 10 8 9 6 6 1 10 9 12 10 6 8 15 15 16
13 3 4 8 11 9 8 8 10 8 9 7 5 5 5 3 7 5 6 9 13 17 13 9 8 3 2 6 13 6 9 4 2 2 2 7 8 8 6 8 3 6 13 17 18
3 3 7 11 15 9 13 13 9 7 7 12 17 9 12 11 8 9 11 7 7 19 6 6 2 3 2 5 2 8 6 3 1 3 8 6 8 11 5 14 7 8 9 9 12
2 4 5 14 11 9 13 10 15 4 7 3 13 7 8 9 9 8 8 4 12 13 22 6 4 0 5 7 14 6 5 4 5 6 6 6 10 7 11 12 13 13 15 16 16
3 5 4 11 11 4 12 10 7 7 12 8 10 12 14 10 11 13 16 10 10 15 19 13 4 5 9 4 5 2 7 7 8 8 6 2 22 6 3 3 8 11 14 13 15
4 4 4 7 11 16 7 10 14 11 15 7 13 13 17 13 7 15 10 9 9 17 14 12 6 2 5 4 3 7 8 17 1 4 13 6 17 4 1 2 6 9 9 11 13
3 4 3 4 10 15 16 19 21 14 16 17 15 14 11 7 15 11 11 9 12 16 11 13 6 16 21 7 9 9 13 14 18 11 8 27 25 3 3 6 6 8 9 12 14
5 6 5 6 10 17 18 6 21 14 12 19 17 20 20 20 19 26 24 2 3 9 14 14 13 10 19 4 6 7 14 20 24 31 16 27 27 18 14 13 11 7 8 11 15
4 5 2 7 4 7 14 19 20 19 9 11 22 24 23 23 23 23 22 16 10 4 14 6 12 12 19 15 10 7 13 24 26 25 27 28 36 7 8 5 8 13 16 17 17
4 2 2 5 7 7 6 8 6 7 7 14 13 19 24 31 26 22 12 6 3 7 11 12 11 8 21 11 7 8 39 21 19 21 22 27 38 9 17 16 10 11 15 19 19
Wind_Direction
45 38 36 27 21 20 14 6 3 358 352 350 348 338 339 336 317 94 56 300 300 314 329 307 319 288 11 56 30 53 59 346 321 142 174 182 121 35 113 96 60 21 93 153 164
25 24 24 20 9 10 7 4 358 350 349 347 339 332 335 341 340 355 296 300 332 2 353 15 358 0 19 50 15 82 90 307 336 334 155 164 121 151 104 127 76 67 71 96 83
17 11 6 7 0 358 357 357 350 348 347 341 330 326 328 334 24 295 315 313 358 337 288 318 332 30 36 61 33 6 150 303 354 39 42 138 105 200 131 184 199 174 159 123 93
337 355 355 351 354 351 347 344 344 347 341 335 329 325 322 109 140 204 279 285 290 310 324 333 11 42 116 114 56 53 89 87 331 34 48 87 98 126 95 145 97 124 140 119 114
302 312 327 335 338 338 340 338 338 339 334 333 329 332 354 13 243 179 224 241 297 320 3 21 43 354 78 112 97 119 239 85 117 77 62 48 118 180 138 152 119 114 107 127 130
274 291 304 316 323 326 330 327 328 329 329 329 330 328 359 277 156 146 148 156 288 324 336 37 66 97 31 95 120 205 341 282 185 189 198 160 250 140 166 154 137 130 136 141 138
260 273 293 307 312 316 318 316 315 317 319 319 328 326 342 236 157 145 160 61 17 38 91 54 35 76 3 92 200 79 336 305 233 195 216 145 290 230 167 161 153 155 154 145 152
232 255 274 290 301 308 309 306 302 302 308 305 318 319 244 31 333 136 128 58 24 20 87 39 18 87 84 192 32 167 70 328 259 156 197 125 262 285 167 151 172 170 169 163 171
218 220 253 270 288 297 301 296 291 295 294 298 319 166 267 342 161 191 159 142 99 51 21 21 64 127 47 93 11 324 220 212 299 173 128 161 263 187 159 172 182 188 185 178 176
222 203 214 237 272 291 293 282 292 317 270 256 271 13 214 206 153 133 68 141 126 113 60 79 59 96 45 101 219 210 218 250 224 220 146 183 259 226 207 191 201 197 190 186 183
220 209 207 210 225 283 322 328 330 276 247 198 190 207 133 89 24 191 211 130 104 95 158 210 119 203 201 196 205 224 214 243 261 230 143 216 250 239 217 218 214 212 200 196 188
207 203 203 203 181 236 307 242 244 228 295 238 240 267 144 172 111 207 126 144 148 185 135 72 230 226 205 210 224 247 260 268 284 205 163 258 248 253 198 221 210 207 209 197 155
202 195 193 193 173 173 224 242 254 129 261 268 200 192 180 153 196 188 151 165 163 166 190 174 215 194 190 228 195 226 203 232 225 244 267 286 270 248 242 224 214 227 216 191 175
201 198 190 161 129 167 223 234 246 14 272 259 214 235 134 134 237 167 185 151 187 193 190 223 228 185 166 217 174 238 210 217 241 148 244 150 284 251 242 243 214 229 198 189 173
236 196 176 178 143 177 235 180 149 37 274 239 145 314 157 164 135 266 265 83 171 184 150 230 180 188 220 212 167 227 157 189 212 195 337 282 290 262 216 248 248 239 211 187 175
293 217 188 196 268 285 86 99 73 216 233 207 115 146 134 197 45 94 126 46 150 170 264 209 167 159 195 85 161 153 77 40 39 69 260 223 216 196 236 231 257 237 194 171 169
326 250 193 165 214 168 147 88 112 198 314 201 156 164 178 174 126 157 161 177 170 160 218 179 202 173 140 97 20 119 101 311 322 310 243 217 233 246 248 247 227 224 186 172 165
322 253 216 211 167 162 155 133 189 204 200 114 131 86 187 141 189 170 142 191 247 197 131 193 246 171 193 183 169 190 161 166 218 215 260 54 240 251 225 250 280 235 184 163 165
316 214 217 198 182 183 178 210 215 191 171 133 81 129 214 147 139 146 220 225 201 193 190 177 249 105 152 155 152 202 209 183 16 56 350 223 277 300 244 273 292 185 167 177 170
325 249 226 175 177 190 222 218 241 213 140 186 201 159 181 184 157 173 179 205 213 197 218 204 203 19 353 85 34 153 164 86 52 218 252 260 252 235 213 239 217 211 183 177 172
263 250 221 165 172 213 222 201 233 234 260 162 212 197 194 177 176 207 215 260 199 189 197 188 155 289 131 207 173 156 185 189 144 165 210 277 255 204 216 220 206 206 193 182 179
236 237 210 151 205 230 216 209 182 185 214 252 215 223 224 194 186 207 211 208 184 162 194 200 128 165 204 269 258 216 179 164 172 217 237 200 259 177 130 264 193 203 196 188 181
243 234 259 178 222 224 224 221 226 205 215 197 233 218 224 234 218 229 210 199 183 170 172 172 207 100 318 348 326 204 214 215 252 62 224 190 264 356 64 198 207 190 185 180 173
199 252 213 194 255 227 236 235 225 205 230 220 240 251 243 242 231 243 227 209 191 193 179 156 171 204 231 228 151 196 197 205 204 227 210 235 259 166 198 228 208 209 184 177 180
201 233 221 199 228 233 246 243 225 233 215 201 236 237 235 232 231 241 237 221 271 202 181 168 211 199 237 191 158 178 198 203 207 225 208 252 242 236 232 217 213 186 165 178 187
234 192 244 255 283 227 234 248 246 255 220 211 224 223 229 244 222 235 231 212 196 192 196 181 229 207 244 234 219 214 212 216 219 232 237 251 260 127 231 223 180 195 185 192 198
232 278 120 241 237 237 235 241 244 170 224 230 238 239 236 229 236 244 243 259 131 165 191 171 194 172 243 203 224 261 236 218 223 229 224 234 244 195 243 241 218 210 197 201 198